Сандыкачи

Туркменистан     36˚33′00″N   62˚34′01″E
темп.,
°C
ветер,
м/с
пор.,
м/с
влажн.,
%
обл.,
%
осадки,
мм/ч
давл.,
гПа
погр.,
м
6 декабря, вс
вс623:00+4˚св12370 0.0 103033
02:00+3˚св11430 0.0 102922
05:00+2˚в115119 0.0 102922
08:00+2˚вюв115727 0.0 102922
11:00+6˚св124460 0.0 1028257
14:00+9˚св3436100 0.0 1026817
17:00+9˚всв5634100 0.0 1025588
20:00+7˚всв5738100 0.0 1026439
7 декабря, пн
пн723:00+5˚св3442100 0.1 1026236
02:00+5˚св4636100 0.1 1026312
05:00+4˚ссв3459100 0.6 1026254
08:00+2˚св2468100 0.9 1029362
11:00+1˚с3493100 1.3 1031246
14:00+1˚с5692100 0.6 1029326
17:00+1˚с6794100 1.0 1030417
20:00+2˚с5957100 0.4 1031698
8 декабря, вт
вт823:00+2˚ссз3537100 1.0 1032835
02:00−1˚с2471100 1.1 1033525
05:00−2˚ссз2391100 1.6 1033283
08:00−2˚с2294100 1.2 1035204
11:00−2˚всв018398 1.4 1036303
14:00всв117372 0.0 1034545
17:00+2˚в227153 0.0 1034646
20:00+1˚вюв237454 0.0 1035412
9 декабря, ср
ср923:00+1˚вюв237640 0.0 1035290
02:00вюв11820 0.0 103421
05:00−1˚всв12830 0.0 103321
08:00−1˚всв11820 0.0 103421
11:00+2˚в11700 0.0 1034314
14:00+4˚ссв11647 0.0 1031677
17:00+4˚всв12638 0.0 1030476
20:00+3˚всв12693 0.0 103026
10 декабря, чт
чт1023:00+2˚вюв12782 0.0 103024
02:00+1˚вюв12820 0.0 102922
05:00в118318 0.0 102922
08:00вюв1282100 0.0 103022
11:00+3˚всв1168100 0.0 1031289
14:00+5˚св2361100 0.0 1029778
17:00+6˚св4557100 0.0 1030719
20:00+4˚всв4653100 0.0 1031221